[[{"header":{"parameterUnit":"m.s-1","parameterCategory":1,"la1":30.2991,"la2":30.254,"lo1":-89.0895,"lo2":-89.0444,"dy":0.0017,"dx":0.0017,"nx":28,"ny":28,"refTime":"2025-04-27T09:00:00:Z","depth":0,"parameterNumber":2,"parameterNumberName":"U-component_of_WINDS"},"data":[0,0,0,0,0,0,0,0,0,0,0,0,0,0,0,0,0,0,0,0,0,0,0,0,0,0,0,0,0,0,0,0,0,0,0,0,0,0,0,0,0,0,0,0,0,0,0,0,0,0,0,0,0,0,0,0,0,0,-3.3044,-3.3045,0,-3.3175,-3.3176,-3.3178,-3.3181,-3.318,-3.3178,-3.3177,-3.331,-3.3314,-3.3319,0,0,0,0,0,0,0,0,0,0,0,0,0,-3.2798,-3.2802,-3.3044,-3.3046,-3.3047,-3.3174,-3.3176,-3.3178,-3.3182,-3.318,-3.3178,-3.3176,-3.3308,-3.3314,-3.332,0,0,0,0,0,0,0,0,0,0,0,0,0,-3.2914,-3.2804,-3.3044,-3.3064,-3.3068,-3.3174,-3.3176,-3.3178,-3.3182,-3.318,-3.3177,-3.3175,-3.3306,-3.3313,-3.3321,-3.3415,0,0,-3.3344,-3.3347,0,0,0,0,0,0,0,0,-3.2907,-3.2923,-3.306,-3.3063,-3.3067,-3.3159,-3.3138,-3.3258,-3.3183,-3.3139,-3.3177,-3.3174,-3.3261,-3.3272,-3.3302,-3.3421,-3.3427,-3.3344,-3.3349,-3.3352,-3.3354,0,0,0,0,0,0,0,-3.2899,-3.2917,-3.3096,-3.3062,-3.3066,-3.3067,-3.3081,-3.3161,-3.3212,-3.3142,-3.3143,-3.3158,-3.3263,-3.3295,-3.3305,-3.3429,-3.3344,-3.3351,-3.3355,-3.3358,-3.3632,-3.3634,0,0,0,0,0,0,-3.2887,-3.2911,-3.3091,-3.3099,-3.298,-3.3073,-3.3089,-3.3132,-3.3211,-3.3221,-3.316,-3.3158,-3.3283,-3.3296,-3.331,-3.3425,-3.3352,-3.3359,-3.3363,-3.3629,-3.3632,-3.3635,0,0,0,0,0,0,-3.2882,-3.2903,-3.3086,-3.3005,-3.3029,-3.308,-3.3128,-3.3136,-3.3168,-3.3224,-3.3233,-3.3183,-3.3282,-3.3299,-3.3389,-3.343,-3.3363,-3.3369,-3.3626,-3.363,-3.3634,-3.3657,0,0,0,0,0,0,-3.2875,-3.2901,-3.2938,-3.3006,-3.3033,-3.3163,-3.3131,-3.314,-3.3181,-3.3179,-3.3249,-3.3258,-3.3281,-3.3378,-3.3396,-3.3439,-3.3375,-3.3622,-3.3628,-3.3633,-3.3652,-3.3661,-3.3668,0,0,0,0,0,-3.2866,-3.2939,-3.2939,-3.2961,-3.308,-3.3165,-3.3181,-3.3206,-3.3184,-3.3221,-3.3258,-3.3256,-3.3423,-3.3387,-3.3408,-3.3453,-3.362,-3.3626,-3.3632,-3.3649,-3.3659,-3.3668,0,0,0,0,0,0,-3.2873,-3.2948,-3.295,-3.3047,-3.31,-3.3166,-3.3213,-3.3217,-3.3277,-3.3273,-3.3302,-3.3317,-3.3406,-3.3439,-3.3398,-3.3549,-3.3519,-3.3529,-3.3524,-3.3534,-3.3542,-3.3532,-3.3382,0,0,0,0,0,-3.2886,-3.295,-3.3012,-3.3091,-3.3118,-3.3161,-3.3199,-3.3215,-3.327,-3.3293,-3.3336,-3.339,-3.3455,-3.3497,-3.3559,-3.3658,-3.3673,-3.3699,-3.3707,-3.3714,-3.3722,-3.3776,-3.3789,-3.3656,-3.3656,-3.3656,0,0,-3.2913,-3.2962,-3.3,-3.3094,-3.3137,-3.3202,-3.318,-3.3249,-3.3298,-3.3303,-3.339,-3.3424,-3.3486,-3.3581,-3.3624,-3.3611,-3.3763,-3.3722,-3.3726,-3.3731,-3.3784,-3.3797,-3.3808,-3.366,-3.3659,-3.3658,0,0,-3.2996,-3.304,-3.311,-3.3154,-3.3219,-3.3248,-3.3265,-3.3331,-3.3353,-3.3441,-3.3447,-3.3505,-3.3616,-3.366,-3.3697,-3.3798,-3.3798,-3.3818,-3.3859,-3.3911,-3.3922,-3.3931,-3.3966,-3.3979,-3.3826,-3.3826,-3.3826,0,-3.3021,-3.312,-3.3146,-3.3216,-3.3257,-3.3266,-3.3338,-3.3379,-3.3461,-3.3489,-3.3473,-3.3613,-3.3655,-3.376,-3.3785,-3.3815,-3.3835,-3.3809,-3.3918,-3.3928,-3.3937,-3.3971,-3.3984,-3.3828,-3.3828,-3.3828,-3.3827,0,-3.3147,-3.3215,-3.3265,-3.3344,-3.3391,-3.3462,-3.3499,-3.3543,-3.3555,-3.3585,-3.3675,-3.3727,-3.38,-3.3826,-3.3838,-3.3933,-3.3922,-3.3912,-3.3882,-3.3951,-3.3983,-3.3997,-3.3831,-3.383,-3.3829,-3.3829,0,0,-3.3237,-3.3331,-3.3349,-3.3385,-3.3458,-3.3511,-3.3582,-3.3654,-3.3691,-3.3748,-3.3808,-3.3903,-3.3894,-3.3936,-3.3953,-3.3999,-3.4075,-3.3983,-3.3985,-3.3998,-3.4182,-3.4188,-3.4203,-3.4076,-3.4079,-3.4081,-3.4176,0,-3.3327,-3.3453,-3.348,-3.3589,-3.3652,-3.3662,-3.3724,-3.3776,-3.3806,-3.3864,-3.3898,-3.3964,-3.3947,-3.3972,-3.4019,-3.4056,-3.4112,-3.405,-3.4132,-3.4135,-3.4115,-3.422,-3.4227,-3.4315,-3.4189,-3.4192,-3.4193,0,-3.3448,-3.3508,-3.3623,-3.3689,-3.3716,-3.3771,-3.3839,-3.3895,-3.3954,-3.3973,-3.402,-3.4033,-3.4107,-3.4075,-3.4177,-3.4134,-3.417,-3.4193,-3.4197,-3.4205,-3.4167,-3.4229,-3.4343,-3.4356,-3.4213,-3.4212,-3.421,0,-3.3501,-3.361,-3.3694,-3.3725,-3.3803,-3.3841,-3.3876,-3.3932,-3.3974,-3.4034,-3.4061,-3.4129,-3.4166,-3.4218,-3.4248,-3.4222,-3.4349,-3.4319,-3.4366,-3.4365,-3.4391,-3.4389,-3.4511,-3.4416,-3.4416,-3.4415,-3.4415,0,-3.3597,-3.3668,-3.3718,-3.3769,-3.3848,-3.3879,-3.3956,-3.399,-3.4041,-3.4099,-3.4112,-3.4166,-3.4203,-3.4263,-3.4287,-3.4368,-3.4385,-3.4402,-3.4407,-3.44,-3.4398,-3.4423,-3.4417,-3.4419,-3.4418,-3.4417,-3.4417,0,-3.3669,-3.3706,-3.3797,-3.3864,-3.3882,-3.3938,-3.3995,-3.4045,-3.4076,-3.4149,-3.4168,-3.4216,-3.4287,-3.4323,-3.4411,-3.4428,-3.4519,-3.4521,-3.4499,-3.4501,-3.4545,-3.454,-3.4687,-3.4707,-3.46,-3.4601,-3.4602,0,-3.3728,-3.3782,-3.3855,-3.3894,-3.393,-3.3994,-3.4036,-3.4069,-3.4112,-3.4184,-3.4225,-3.4297,-3.4355,-3.4468,-3.4511,-3.4579,-3.4582,-3.4629,-3.4592,-3.4583,-3.4582,-3.4577,-3.4583,-3.4635,-3.4636,-3.4637,-3.4637,0,-3.3828,-3.3844,-3.3905,-3.3972,-3.4023,-3.4078,-3.4132,-3.4164,-3.4205,-3.4254,-3.4326,-3.4372,-3.4462,-3.4533,-3.4604,-3.4639,-3.4645,-3.4649,-3.4663,-3.4655,-3.464,-3.4648,-3.4515,-3.4645,-3.4644,-3.4643,-3.4643,-3.4643,-3.3894,-3.3943,-3.4002,-3.4069,-3.4113,-3.4164,-3.4214,-3.4252,-3.4313,-3.4388,-3.4404,-3.4481,-3.4539,-3.4634,-3.4672,-3.4733,-3.4723,-3.4743,-3.4749,-3.4753,-3.4755,-3.4631,-3.4746,-3.4746,-3.4745,-3.4745,-3.4745,0,-3.3994,-3.4033,-3.4095,-3.417,-3.4223,-3.4225,-3.4285,-3.433,-3.4397,-3.4451,-3.4508,-3.4592,-3.466,-3.4709,-3.4779,-3.4818,-3.4823,-3.4835,-3.4832,-3.484,-3.476,-3.474,-3.4831,-3.4831,-3.483,-3.483,-3.483,-3.483,-3.4053,-3.4135,-3.4157,-3.4262,-3.43,-3.4375,-3.4409,-3.4456,-3.4498,-3.4591,-3.4648,-3.468,-3.4732,-3.4806,-3.4869,-3.4881,-3.4906,-3.4919,-3.4931,-3.4855,-3.4846,-3.4837,-3.4819,-3.4924,-3.4924,-3.5006,-3.5007,-3.5007]},{"header":{"parameterUnit":"m.s-1","parameterCategory":1,"la1":30.2991,"la2":30.254,"lo1":-89.0895,"lo2":-89.0444,"dy":0.0017,"dx":0.0017,"nx":28,"ny":28,"refTime":"2025-04-27T09:00:00:Z","depth":0,"parameterNumber":3,"parameterNumberName":"V-component_of_WINDS"},"data":[0,0,0,0,0,0,0,0,0,0,0,0,0,0,0,0,0,0,0,0,0,0,0,0,0,0,0,0,0,0,0,0,0,0,0,0,0,0,0,0,0,0,0,0,0,0,0,0,0,0,0,0,0,0,0,0,0,0,2.2168,2.2168,0,2.2124,2.2124,2.2123,2.2076,2.2075,2.2075,2.2074,2.2025,2.2024,2.2023,0,0,0,0,0,0,0,0,0,0,0,0,0,2.2209,2.2208,2.2168,2.2168,2.2167,2.2124,2.2124,2.2123,2.2076,2.2075,2.2074,2.2074,2.2025,2.2024,2.2023,0,0,0,0,0,0,0,0,0,0,0,0,0,2.2181,2.2208,2.2169,2.2139,2.2136,2.2125,2.2124,2.2123,2.2076,2.2075,2.2074,2.2073,2.2025,2.2024,2.2023,2.2037,0,0,2.202,2.2019,0,0,0,0,0,0,0,0,2.2182,2.2179,2.2144,2.2141,2.2137,2.2105,2.212,2.2094,2.2076,2.2099,2.2074,2.2073,2.2052,2.2048,2.2042,2.2034,2.2032,2.202,2.2019,2.2019,2.2018,0,0,0,0,0,0,0,2.2184,2.2181,2.2151,2.2143,2.2139,2.2127,2.2121,2.2115,2.2081,2.2097,2.2093,2.2089,2.205,2.2043,2.2041,2.2031,2.202,2.2019,2.2018,2.2018,2.2032,2.2033,0,0,0,0,0,0,2.2191,2.2183,2.2152,2.215,2.2158,2.2127,2.2121,2.2116,2.2081,2.2075,2.209,2.2087,2.2046,2.2042,2.2039,2.2052,2.2019,2.2018,2.2017,2.2031,2.2032,2.2033,0,0,0,0,0,0,2.2192,2.2189,2.2154,2.2165,2.216,2.2127,2.2122,2.2116,2.2109,2.2076,2.2069,2.2089,2.2045,2.204,2.2038,2.205,2.2017,2.2016,2.203,2.2032,2.2033,2.2079,0,0,0,0,0,0,2.2194,2.219,2.2195,2.2166,2.2159,2.2155,2.2123,2.2116,2.2108,2.2104,2.2074,2.2068,2.2044,2.204,2.2037,2.2048,2.2016,2.2029,2.2031,2.2032,2.2076,2.2082,2.2087,0,0,0,0,0,2.2195,2.2209,2.2196,2.2192,2.2166,2.2156,2.2152,2.2125,2.2109,2.2114,2.2093,2.2069,2.2049,2.204,2.2036,2.2047,2.2028,2.203,2.2032,2.2074,2.2081,2.2087,0,0,0,0,0,0,2.2239,2.2204,2.2189,2.2194,2.2178,2.2148,2.2153,2.2133,2.212,2.2116,2.2082,2.2076,2.2077,2.2062,2.2052,2.2058,2.2035,2.2037,2.2068,2.2074,2.208,2.2083,2.2015,0,0,0,0,0,2.2249,2.2245,2.2215,2.2222,2.2215,2.2186,2.218,2.2161,2.2142,2.2135,2.2113,2.2096,2.2085,2.2079,2.2068,2.2074,2.2067,2.208,2.2085,2.209,2.2091,2.2094,2.2099,2.2041,2.2041,2.2041,0,0,2.227,2.2251,2.225,2.223,2.2216,2.2211,2.218,2.2176,2.2172,2.2134,2.2131,2.2115,2.2092,2.2094,2.2094,2.2082,2.2106,2.2093,2.2097,2.2095,2.2096,2.2102,2.2107,2.2042,2.2042,2.2042,0,0,2.2306,2.2291,2.2296,2.2282,2.2262,2.2242,2.2243,2.2216,2.2204,2.2201,2.2172,2.2166,2.2149,2.2135,2.2125,2.2157,2.2134,2.2154,2.2181,2.2184,2.2188,2.2192,2.2203,2.2207,2.2156,2.2156,2.2156,0,2.2334,2.2327,2.23,2.2299,2.2291,2.2258,2.2261,2.2249,2.2225,2.222,2.2207,2.2186,2.2168,2.2167,2.2175,2.2168,2.2168,2.2157,2.219,2.2194,2.2197,2.2207,2.2211,2.2159,2.2158,2.2158,2.2158,0,2.2363,2.2359,2.2365,2.2344,2.2337,2.2338,2.231,2.2306,2.2288,2.2269,2.2266,2.2244,2.2228,2.2227,2.2208,2.2222,2.2215,2.2197,2.2173,2.2205,2.2214,2.2218,2.2162,2.2161,2.2161,2.216,0,0,2.2423,2.2389,2.2392,2.2382,2.2357,2.2353,2.2353,2.2338,2.2335,2.232,2.2318,2.2306,2.2289,2.2278,2.2257,2.226,2.2286,2.2241,2.224,2.2249,2.23,2.2314,2.2319,2.2272,2.2272,2.2273,2.2302,0,2.2454,2.2453,2.2429,2.2434,2.2429,2.2398,2.2398,2.2382,2.2365,2.2358,2.2339,2.2331,2.2309,2.2302,2.2304,2.2283,2.2296,2.228,2.2268,2.2268,2.2274,2.2323,2.2337,2.2365,2.2305,2.2306,2.2306,0,2.249,2.2478,2.2483,2.2459,2.2456,2.2456,2.2442,2.2436,2.2417,2.2405,2.2394,2.2371,2.2368,2.2347,2.2342,2.2332,2.2326,2.2315,2.2315,2.2312,2.2288,2.232,2.2374,2.2378,2.2311,2.2311,2.231,0,2.2533,2.2519,2.252,2.2513,2.2484,2.2485,2.2473,2.2454,2.2447,2.2434,2.2429,2.2416,2.2408,2.2397,2.2372,2.2358,2.2369,2.2346,2.2358,2.2358,2.236,2.236,2.2413,2.2358,2.2358,2.2358,2.2358,0,2.2569,2.2573,2.2539,2.2539,2.2543,2.2515,2.2519,2.2504,2.2487,2.2484,2.2456,2.2453,2.242,2.2413,2.2393,2.2391,2.2388,2.2377,2.2371,2.2379,2.238,2.2373,2.237,2.2359,2.2359,2.2359,2.2358,0,2.2617,2.2595,2.2594,2.2568,2.2561,2.2565,2.2542,2.2541,2.2524,2.2519,2.2517,2.2488,2.2479,2.2453,2.2436,2.2422,2.2426,2.2416,2.2433,2.2429,2.2442,2.2441,2.2491,2.2496,2.244,2.244,2.2441,0,2.2641,2.2644,2.2619,2.2615,2.2605,2.2599,2.2593,2.2566,2.256,2.254,2.2541,2.253,2.2519,2.2505,2.2482,2.2469,2.2458,2.2476,2.2455,2.2463,2.2457,2.2457,2.2457,2.2481,2.2481,2.2482,2.2482,0,2.2686,2.2675,2.2668,2.2656,2.265,2.2639,2.2627,2.2625,2.2595,2.2589,2.258,2.2572,2.2556,2.2545,2.2529,2.2515,2.2493,2.249,2.2492,2.2499,2.2508,2.2502,2.2444,2.2488,2.2487,2.2487,2.2487,2.2487,2.2722,2.2723,2.2706,2.2699,2.2687,2.2676,2.2674,2.2657,2.265,2.2635,2.262,2.2612,2.2594,2.257,2.2558,2.2551,2.2539,2.2542,2.2543,2.2544,2.2547,2.251,2.2548,2.2548,2.2547,2.2547,2.2547,0,2.2766,2.2754,2.2747,2.2731,2.2725,2.2708,2.2694,2.2689,2.2683,2.2669,2.266,2.2649,2.2638,2.2615,2.2602,2.2601,2.2591,2.2598,2.2597,2.2594,2.2558,2.2558,2.2607,2.2607,2.2607,2.2607,2.2607,2.2607,2.2787,2.2788,2.2775,2.277,2.2757,2.2751,2.2744,2.2734,2.2722,2.2712,2.2704,2.2689,2.2671,2.2657,2.2646,2.2639,2.2635,2.2646,2.2636,2.2603,2.2597,2.2591,2.2591,2.2645,2.2646,2.2672,2.2672,2.2673]}]]